Showing default

ZHUHAI-1 03C, 44537

Orbit data source: Space-Track

ZHUHAI-1 03C, 44537 is a payload satellite owned by Zhuhai Orbita (CN) in SSO that was launched on Thu, 19 Sep 2019 UTC via a CHANG ZHENG 11 launch vehicle from the Jiuquan Satellite Launch Center, China (JSC). Payload-class satellites include a variety of spacecraft equipped with specific instruments for various scientific and technological missions. These include communications satellites like Starlink; space stations such as the ISS; scientific satellites like the Hubble; Earth observation satellites from companies like Planet Labs, Umbra, and HawkEye 360; GPS; miniature CubeSats for education and research; and military/defense satellites.

Loading next visibility...
Identifier
44537, 2019-060D
Orbit
SSO
Country
Flag of CNCN / PRC
Related business
Manufacturer
Harbin
Mission
Operational Commercial Imaging
Bus & Motor
OHS-1, Unknown motor
Mass
69 kg wet, 69 kg dry
Launch date (UTC)
2019-09-19 (6 years ago)
Launch vehicle
CHANG ZHENG 11
Launch site
Jiuquan Satellite Launch Center, China (JSC)
Object type
Payload
Rocket body
Debris
Shape & HBR
Box, Unknown HBR
Radar Cross Section
0.280 m², Medium (>0.1 m² and < 1m²)

Expand to show TLE details & history
Last TLE update: 9 hours ago

TLE from 9 hours ago
0 ZHUHAI-1 03C
1 44537U 19060D   25304.29274569  .00050728  00000-0  85026-3 0  9993
2 44537  97.5566  93.2749 0015203  32.3680 327.8501 15.51554425341304
Epoch: 2025-10-31T07:01Z
TLE epoch observation values (Epoch: 2025-10-31T07:01:33.227Z)
Latitude
-0.00005°
Longitude
-51.9528°
Altitude
406.578 km
Speed
7.672 km/s
True Right ascension
06h 13m 05s
True Declination
0° 00' 00"
Sunlit
Object was in full shadow at epoch
Visualization orbit readout
Latitude
Unknown
Longitude
Unknown
Altitude
Unknown
Speed
Unknown
Apparent Right ascension
Unknown
Apparent Declination
Unknown
Sunlit
N/A
Visualization observer readout
Local Sidereal Time
12:01:06
Azimuth
Unknown
Elevation
Unknown
Doppler factor
Unknown
Orbital elements
Apogee altitude
419.436 km
Perigee altitude
398.799 km
Semi-major axis
6,787.255 km
Eccentricity
0.00152
Inclination
97.5566°
RAAN
93.2749°
Arg. of periapsis
32.368°
True anomaly
327.75725°
Mean anomaly
327.8501°
Eccentric anomaly
327.80369°
Mean motion
3.88152 °/min
Orbital period
92.75 mins
BSTAR
0.00085026
Loading maneuver chart data...
Computing Atmospheric mass density...
Loading historical data...
Loading historical data...
Loading historical data...
Loading historical data...
Loading historical data...
Loading historical data...
Loading historical data...

Documentation

Showing up to 5 results
|